Lapse_Rate
9.0 8.0 5.6 4.4 4.4 4.3 4.0 3.9 3.8 4.1 4.3 4.0 3.8 4.0 4.2 4.4 4.5 4.6 4.7 4.7 4.6 4.3 4.1 3.9 3.7 3.6 3.7 4.3 5.9 7.3 9.9 9.9
9.5 9.3 8.7 7.1 6.0 4.0 3.9 3.7 3.7 3.6 3.8 3.9 3.7 4.1 4.3 4.4 4.6 4.4 4.5 4.6 4.4 4.3 4.0 4.1 4.1 3.5 3.6 4.7 6.3 8.1 9.9 9.9
7.1 9.6 9.2 8.8 8.3 5.2 4.0 3.6 3.4 3.5 3.7 4.0 4.8 8.4 8.3 7.3 5.4 4.3 4.3 4.3 4.2 4.0 4.0 4.5 4.4 3.7 4.5 6.0 7.8 9.8 9.9 9.7
5.1 9.6 9.2 7.9 9.5 6.8 8.3 6.9 8.7 9.4 8.3 7.7 9.5 9.0 9.6 9.3 5.8 4.1 4.1 4.1 4.2 4.3 4.6 5.4 5.8 9.7 8.3 7.7 9.6 9.6 9.3 8.4
6.0 7.2 7.9 9.6 9.7 9.5 9.5 9.5 9.4 9.2 9.2 9.5 9.4 9.0 7.5 9.4 8.1 7.9 7.9 6.0 9.2 8.2 8.9 9.6 9.3 9.7 9.5 9.5 9.5 9.6 8.1 4.6
9.4 7.3 8.8 9.5 9.6 9.7 9.7 9.7 9.5 9.6 9.4 8.8 9.4 9.7 9.7 9.7 9.8 9.6 9.5 9.7 9.6 9.7 9.0 7.6 7.4 7.0 6.7 6.4 6.5 7.0 5.5 3.6
9.4 9.0 9.6 9.5 9.8 9.7 9.8 9.7 9.7 9.6 9.3 8.7 9.6 9.8 9.8 9.7 9.6 9.8 9.7 9.6 9.6 9.4 7.9 7.2 6.5 6.5 6.0 5.7 5.6 6.5 7.5 4.5
9.4 9.4 9.6 8.9 9.8 9.5 9.7 9.7 9.0 9.6 9.5 9.2 8.4 9.6 9.6 9.7 9.6 9.7 9.4 8.0 9.4 8.8 8.2 9.5 7.8 6.2 5.8 5.8 6.2 6.7 7.0 7.9
8.5 9.5 9.7 9.3 9.2 8.4 9.6 9.5 9.4 9.6 9.4 7.2 7.7 8.5 7.9 9.3 9.7 9.1 8.5 7.3 6.8 6.9 7.2 6.9 7.0 6.4 6.2 5.9 6.1 6.1 6.1 6.9
9.3 9.7 8.7 8.4 9.3 9.4 9.8 9.3 9.5 9.5 9.0 7.8 7.1 7.4 7.3 7.9 8.5 8.2 7.6 7.7 8.0 8.1 8.5 8.3 8.1 8.2 7.3 7.7 6.7 6.3 5.9 6.2
9.5 9.1 8.2 7.8 7.4 9.3 9.6 8.0 9.1 9.6 8.9 8.6 6.9 6.9 7.0 8.2 8.6 7.4 7.0 8.0 7.9 8.2 8.4 8.9 8.1 8.2 8.0 8.2 8.8 9.3 8.5 7.5
9.6 9.3 8.8 8.1 7.6 8.7 9.6 8.5 8.6 7.6 8.0 8.2 6.7 7.2 6.7 7.1 7.3 6.6 7.4 8.4 8.0 8.3 7.9 8.2 9.2 9.3 9.7 8.9 9.3 9.4 8.6 7.7
9.5 9.4 9.2 9.4 9.1 9.1 9.1 8.9 7.9 7.9 7.8 6.6 6.4 6.9 6.2 6.6 7.3 6.4 6.9 7.9 8.1 6.7 7.3 7.1 8.5 8.2 8.2 9.1 8.5 7.8 8.6 9.0
9.4 9.4 7.8 6.9 8.8 9.3 9.2 9.5 8.4 8.6 7.3 6.1 6.1 5.7 5.6 6.0 6.5 6.7 6.4 6.9 5.7 5.3 6.6 7.4 8.7 8.5 9.2 9.2 8.6 9.0 8.8 8.5
9.2 9.2 6.2 6.5 7.7 9.2 7.9 7.2 6.5 7.0 6.2 6.3 5.7 5.1 5.3 5.6 5.3 5.8 5.3 6.1 6.4 6.2 6.4 7.1 8.8 9.2 9.4 8.7 8.4 8.1 9.0 9.4
8.6 9.2 8.2 7.0 7.8 7.1 6.1 5.9 6.3 7.0 6.4 6.7 5.1 4.5 4.8 4.9 5.1 5.2 5.3 6.5 6.8 6.3 6.5 7.6 9.3 9.0 8.9 7.4 7.5 8.7 8.5 8.4
5.7 5.6 6.5 5.1 6.2 5.7 6.3 8.3 9.4 9.4 7.2 5.8 5.3 4.7 4.5 4.4 4.4 4.7 5.2 6.1 5.8 6.1 5.6 6.4 8.4 9.5 9.3 9.2 8.7 9.0 9.1 8.8
4.8 6.3 5.0 6.9 4.3 5.2 7.0 8.4 9.2 8.4 6.1 5.3 5.8 5.4 4.7 3.9 3.7 4.3 4.5 5.0 4.6 5.0 5.0 5.7 8.3 9.1 9.6 9.1 9.3 9.0 9.0 8.9
2.9 5.8 5.0 6.4 5.3 6.6 6.4 8.6 8.1 6.3 5.8 5.9 5.6 4.3 2.9 2.6 3.7 3.9 4.6 4.3 3.9 3.8 4.9 5.4 6.0 7.3 7.1 8.5 7.7 7.5 7.6 9.2
4.1 4.3 5.7 6.9 6.4 5.5 5.9 6.8 5.9 6.4 6.0 4.6 3.1 3.1 3.2 2.9 4.0 4.0 3.3 3.2 3.0 3.4 4.7 5.5 5.4 5.8 5.8 6.6 6.6 6.2 6.6 8.4
Wind_Speed
19 19 15 13 13 13 13 13 14 14 14 14 15 16 16 16 15 15 13 12 11 10 10 10 10 12 12 11 11 8 8 9
16 18 17 15 14 12 13 13 14 15 15 14 15 15 16 15 15 12 11 10 9 9 10 8 9 10 10 9 5 2 9 7
10 15 15 14 14 14 13 12 13 15 15 15 17 15 14 15 14 11 10 8 8 8 6 7 10 11 10 7 3 7 5 10
12 13 14 15 14 15 13 14 13 12 14 12 12 12 10 13 11 9 8 7 7 7 7 9 12 10 9 4 9 9 15 17
15 13 16 15 13 14 13 12 11 11 11 9 11 12 13 11 11 10 10 7 9 9 9 5 7 6 8 8 8 10 14 15
17 16 13 15 14 11 12 11 11 10 10 9 9 8 8 8 8 8 6 5 6 6 8 9 11 11 11 12 13 14 14 15
18 17 15 13 12 12 11 10 11 11 10 9 8 7 5 6 6 5 5 6 6 7 8 10 11 12 13 13 14 13 14 17
19 18 15 16 11 12 11 11 11 10 9 10 8 7 7 6 6 5 6 6 6 7 7 8 9 11 12 12 12 12 12 15
18 17 15 14 13 12 12 13 12 9 9 9 7 6 7 5 5 5 6 8 9 9 8 9 8 11 10 12 12 12 12 11
19 15 17 15 13 12 11 12 10 10 9 9 9 8 9 7 6 5 7 6 6 6 5 6 6 7 7 8 10 12 12 11
18 18 18 16 13 12 11 13 10 8 9 8 8 8 8 7 6 7 7 6 5 5 5 6 7 7 8 7 7 8 9 11
19 16 17 16 11 10 9 8 8 9 8 7 8 7 7 7 7 7 6 5 5 5 6 6 7 8 8 8 7 7 8 8
19 18 17 13 11 11 10 9 8 7 8 8 8 7 8 8 7 8 6 5 5 8 8 10 8 9 9 8 7 6 6 6
20 20 20 15 12 10 8 8 7 7 8 9 10 10 10 9 7 6 7 5 7 8 11 8 8 10 4 6 5 5 5 4
20 21 22 19 18 11 8 8 6 6 7 7 9 11 11 9 9 8 8 7 7 9 10 10 8 8 7 3 4 3 7 5
18 19 20 18 19 15 15 12 11 8 9 8 8 11 10 9 7 8 8 6 6 8 7 8 6 8 7 4 3 6 4 5
16 16 16 16 17 16 13 14 9 7 8 11 9 8 10 9 8 7 6 6 6 7 8 8 7 7 8 5 3 3 2 3
17 19 18 16 17 17 17 16 13 10 12 11 9 7 6 9 9 7 7 6 6 6 8 9 7 6 6 6 5 4 5 3
14 17 19 18 16 18 17 16 15 16 14 11 11 7 6 7 8 7 6 6 7 7 7 7 7 7 7 5 4 3 3 4
14 13 12 13 14 14 14 15 9 9 10 9 7 8 7 10 8 9 9 9 9 8 5 6 6 6 6 4 3 3 4 5
Wind_Direction
149 152 145 133 135 132 126 118 114 110 108 111 114 115 114 112 111 111 112 110 105 93 82 73 71 70 74 75 65 34 84 89
149 150 157 151 145 134 129 123 120 113 112 116 118 116 118 120 121 114 112 106 97 88 84 80 79 71 78 86 86 28 61 83
154 154 152 148 144 137 134 123 119 121 123 132 149 136 138 155 102 128 120 112 112 106 103 114 111 91 85 78 328 45 71 57
158 164 155 154 149 154 145 144 147 136 136 147 139 142 138 128 130 138 127 132 125 115 132 157 198 123 117 131 68 62 45 57
166 172 160 164 149 158 154 148 142 136 138 157 131 141 150 156 144 151 151 171 162 159 158 107 62 77 74 80 86 87 91 73
171 172 164 166 156 170 155 147 148 150 145 150 145 159 161 153 152 141 164 149 125 116 95 93 85 86 84 77 67 70 76 78
173 175 170 166 167 156 165 147 163 141 161 163 169 157 157 173 142 157 131 142 127 116 109 102 101 89 88 94 97 98 98 87
169 180 173 169 171 165 161 169 144 162 155 154 173 181 167 165 161 147 126 130 116 121 119 113 93 95 89 90 93 97 100 106
170 176 174 174 166 169 172 163 167 159 147 152 152 161 163 161 149 148 128 115 124 124 119 109 108 101 100 97 98 95 96 94
175 174 174 177 173 172 171 162 172 163 165 156 154 148 147 155 151 144 138 145 139 137 137 126 122 116 112 106 102 100 96 93
179 175 177 176 172 173 171 163 175 170 169 167 160 152 153 159 150 141 167 155 149 151 145 141 131 124 116 109 105 106 99 91
182 180 176 179 170 172 172 174 167 168 174 179 172 160 159 165 148 154 178 169 161 158 149 147 139 132 120 106 99 103 102 100
185 180 177 179 178 180 178 179 177 177 178 166 168 162 166 173 164 162 182 178 165 160 152 151 143 138 128 116 106 96 86 89
188 185 179 182 186 182 186 184 187 180 165 170 170 171 174 176 174 171 176 161 162 167 166 157 158 174 166 145 150 141 113 87
193 189 185 187 183 184 175 163 163 179 174 171 173 177 178 180 175 171 168 177 178 176 176 173 168 183 214 287 171 178 150 142
195 198 196 188 185 179 185 185 185 190 182 174 169 177 176 172 175 171 172 179 179 185 186 190 191 187 189 227 311 99 195 159
196 195 202 183 190 188 193 204 194 176 175 167 173 172 175 169 171 171 168 178 172 182 181 201 197 192 198 185 178 169 166 167
194 200 194 203 185 195 201 202 190 179 178 177 175 172 171 170 159 165 163 158 170 183 189 190 198 200 194 192 197 203 184 191
194 205 197 202 207 203 200 202 191 193 182 180 177 173 177 166 160 162 163 158 158 158 183 177 180 192 200 193 205 213 238 207
184 198 201 198 204 208 207 202 197 204 193 168 174 175 180 157 166 162 152 150 146 155 159 171 165 165 171 173 154 145 180 185